カタログに戻る

KUIPER-00089

運用中通信LEO
NORAD 64834·PAYLOAD·🇺🇸 United States

打ち上げ Jul 16, 2025 から Cape Canaveral Space Force Station

Loading…

次のパス (今後24時間)

TLE

最新Source: CelesTrak SupGP

元期: Sep 14, 2026, 21:44 UTC

1 64834C 25151U   26257.90600694 -.00047713  00000+0 -62456-2 0  2570
2 64834  51.8992 168.8824 0000776 102.7244 323.8511 14.79980209    11

AllMySatでKUIPER-00089をリアルタイム追跡

Download on the App Store